Location: Seagrave Observatory
(41.8500°N, 71.5833°W)
Time: 04:29:35
(UTC-04:00)

Daily predictions for brighter satellites

Satellite Brightness Start Highest point End
(mag) Time Altitude Azimuth Time Altitude Azimuth Time Altitude Azimuth
Cosmos 1844 Rocket 4.3 00:07:33 10° NNW 00:10:31 31° N 00:10:31 31° N
Cosmos 2360 Rocket 3.8 00:17:03 32° N 00:17:03 32° N 00:20:12 10° NNE
Cosmos 2219 Rocket 4.2 00:39:52 22° NE 00:39:52 22° NE 00:41:52 10° NNE
Cosmos 2333 Rocket 4.1 00:51:46 25° NE 00:51:46 25° NE 00:54:07 10° NNE
Cosmos 2237 Rocket 4.1 00:56:04 24° NE 00:56:04 24° NE 00:58:17 10° NNE
COSMOS 2428 4.3 01:07:05 30° N 01:07:05 30° N 01:10:16 10° NNE
Cosmos 2278 Rocket 4.0 01:21:41 10° NNW 01:23:56 25° NNW 01:23:56 25° NNW
ATLAS 3B R/B 3.1 01:54:42 66° NNW 01:54:42 66° NNW 02:01:25 10° NNE
CZ-2C R/B 4.5 01:54:01 10° N 01:56:55 24° NW 01:56:55 24° NW
ATLAS CENTAUR R/B 4.5 02:03:00 10° N 02:05:24 14° NE 02:07:42 10° ENE
Cosmos 2369 Rocket 4.5 02:07:21 10° N 02:11:23 20° NE 02:15:26 10° E
COSMOS 2455 4.0 02:15:11 35° NNW 02:15:11 35° NNW 02:19:47 10° NNE
Cosmos 2219 Rocket 4.0 02:21:35 22° NW 02:21:35 22° NW 02:25:04 10° N
Cosmos 1867 4.5 02:28:12 46° NNE 02:28:12 46° NNE 02:32:00 10° NNE
SL-16 R/B 3.0 02:32:46 45° NNW 02:32:46 45° NNW 02:36:58 10° NNE
Cosmos 1607 4.2 02:32:46 61° N 02:32:46 61° N 02:37:56 10° NNE
Cosmos 2333 Rocket 3.9 02:33:47 24° NW 02:33:47 24° NW 02:37:46 10° N
ARIANE 5 R/B 4.1 02:30:57 10° NE 02:35:20 28° E 02:35:20 28° E
Cosmos 2237 Rocket 3.8 02:37:53 25° NW 02:37:53 25° NW 02:41:49 10° N
Resurs 1-4 Rocket 3.7 02:37:40 10° NE 02:42:00 25° E 02:42:33 25° ESE
USA 238 DEB 3.8 02:44:48 65° WNW 02:44:55 65° NW 02:51:58 10° NNE
USA 238 3.8 02:44:55 66° NW 02:45:01 66° NW 02:52:04 10° NNE
USA 234 3.5 02:39:04 10° NE 02:45:16 54° SE 02:45:16 54° SE
Cosmos 158 Rocket 4.4 02:59:10 57° NE 02:59:10 57° NE 03:03:13 10° NNE
IRAS Rocket 4.4 02:53:22 10° NNE 02:58:48 69° E 02:58:48 69° E
CZ-4C R/B 2.6 03:01:20 55° NNW 03:01:20 55° NNW 03:06:51 10° NNE
NOSS 3-2 (A) 3.4 03:01:04 77° SE 03:01:06 77° ESE 03:07:44 10° NE
ERS-2 4.3 02:58:51 10° NNE 03:00:43 26° NE 03:00:43 26° NE
Cosmos 2251 Rocket 3.9 03:08:17 57° E 03:08:17 57° E 03:13:18 10° NNE
CZ-3A R/B 4.0 03:04:31 48° SSW 03:08:09 74° SE 04:08:25 10° NE
ATLAS 5 CENTAUR R/B 3.6 03:09:56 22° ESE 03:10:16 23° ESE 03:14:12 10° ENE
NOSS 3-3 (A) 4.5 03:03:18 10° NW 03:10:47 81° NE 03:18:44 10° SE
NOSS 3-3 (C) 4.5 03:03:24 10° NW 03:10:53 81° NE 03:18:51 10° SE
Cosmos 1110 Rocket 4.2 03:05:59 10° NNW 03:11:11 65° ENE 03:11:36 63° E
Cosmos 1603 3.8 03:14:06 67° NW 03:14:06 67° NW 03:19:33 10° NNE
NOSS 3-2 (C) 3.3 03:16:42 72° S 03:17:18 80° ESE 03:23:58 10° NE
In-Cosmos 22 Rocket 4.0 03:15:21 10° N 03:20:42 85° E 03:20:48 84° ESE
CENTAUR R/B 4.2 03:18:23 17° SE 03:21:11 23° ESE 03:26:06 10° ENE
SL-16 R/B 2.5 03:20:43 42° SSE 03:23:00 81° ENE 03:29:13 10° NNW
S3M 4.0 03:23:09 58° W 03:23:15 59° W 03:29:29 10° N
IRS-1C 4.4 03:21:40 10° N 03:26:32 53° WNW 03:26:32 53° WNW
Meteor 2-3 Rocket 3.7 03:21:34 10° N 03:27:23 83° E 03:28:49 53° SSE
Cosmos 839 Rocket 4.3 03:21:29 10° NNW 03:29:50 88° WSW 03:36:28 10° SSE
ERS-1 4.4 03:28:15 10° N 03:33:01 67° WNW 03:33:01 67° WNW
Cosmos 1892 3.5 03:30:10 10° N 03:33:49 48° ENE 03:33:49 48° ENE
Cosmos 2242 Rocket 3.8 03:36:31 64° SE 03:36:53 67° E 03:41:27 10° NNE
Cosmos 1553 Rocket 4.5 03:43:22 40° W 03:43:38 40° WNW 03:49:22 10° N
Abrixas rocket 4.2 03:44:19 25° N 03:44:19 25° N 03:47:06 10° NE
CZ-2D R/B 2.0 03:39:01 10° NNE 03:44:20 90° ESE 03:45:24 58° SSW
Cosmos 1943 3.1 03:43:43 60° SSW 03:44:48 86° WNW 03:50:30 10° NNE
ATLAS CENTAUR R/B 2.1 03:40:49 10° NNW 03:43:55 44° NNW 03:43:55 44° NNW
Cosmos 1386 Rocket 4.5 03:39:19 10° NNW 03:45:32 61° W 03:46:47 51° SW
Cosmos 1745 Rocket 4.3 03:41:09 10° NNW 03:47:07 44° W 03:47:26 44° W
Cosmos 1726 3.8 03:50:12 25° NNW 03:50:12 25° NNW 03:52:09 10° N
Cosmos 1709 Rocket 4.0 03:42:44 10° N 03:49:09 88° E 03:53:17 23° S
Cosmos 494 Rocket 3.9 03:49:58 61° SW 03:50:53 79° WNW 03:56:11 10° NNE
UNK 3.8 03:52:34 58° W 03:52:34 58° W 03:56:48 10° NNW
Cosmos 2369 Rocket 2.0 03:50:23 10° NNW 03:55:57 69° WSW 03:59:34 22° S
CZ-4B R/B 4.4 03:55:01 10° NNE 03:59:56 38° E 04:04:49 10° SSE
Cosmos 1302 Rocket 3.9 03:56:36 10° NNW 04:01:54 87° WSW 04:07:07 10° SSE
PSLV R/B 3.7 04:02:40 57° ESE 04:02:40 57° ESE 04:05:31 10° E
IRS-1D 3.8 03:57:53 10° N 04:02:54 51° WNW 04:03:55 44° WSW
Cosmos 1455 2.1 04:05:19 66° S 04:05:51 89° ENE 04:09:46 10° N
Cosmos 389 Rocket 3.1 04:11:38 33° SSE 04:12:50 51° E 04:16:16 10° NNE
Cosmos 1733 Rocket 2.9 04:09:53 10° N 04:14:17 84° W 04:16:56 24° S
ARIANE 5 R/B 3.2 04:09:46 10° N 04:14:34 37° WNW 04:15:41 33° W
BREEZE-M DEB (TANK) 3.6 04:12:19 19° WNW 04:15:04 89° NNE 04:23:38 10° ESE
SL-16 R/B 4.4 04:15:29 10° NW 04:16:46 11° NW 04:18:03 10° NNW
Pageos (A) 4.4 04:17:01 10° N 04:19:02 35° E 04:19:06 35° E
Resurs 1-4 Rocket 2.6 04:17:03 10° N 04:21:58 41° WNW 04:23:38 32° WSW
Cosmos 1943 Rocket 2.2 04:17:11 10° NNW 04:22:54 85° ENE 04:28:32 10° SSE
Cosmos 2263 4.3 04:21:56 10° NNW 04:27:34 53° WSW 04:33:09 10° S
PAYLOAD B 4.4 04:22:29 10° NNE 04:28:02 72° ESE 04:33:23 11° S
Cosmos 1184 Rocket 2.7 04:24:55 10° NNW 04:28:21 70° W 04:29:40 34° S
USA 234 3.8 04:22:08 10° NE 04:28:25 50° NNW 04:32:36 21° W
SeaSat 1 2.4 04:26:02 10° SSE 04:30:54 62° WSW 04:35:48 10° NNW
ERS-2 4.3 04:34:04 10° NW 04:35:33 13° WNW 04:35:33 13° WNW
ADEOS II 3.5 04:33:26 10° NNE 04:38:18 37° E 04:43:08 10° SSE
Okean O Rocket 1.6 04:34:41 10° N 04:39:09 71° WNW 04:42:14 20° SSW
Cosmos 2221 Rocket 4.3 04:36:34 10° S 04:40:54 54° E 04:45:13 10° NNE
Cosmos 1908 Rocket 3.5 04:37:35 10° N 04:42:00 86° E 04:46:21 10° S
Okean-O 3.9 04:38:07 10° NNE 04:42:19 40° E 04:46:29 10° SSE
Cosmos 1408 2.8 04:39:08 10° N 04:42:53 75° E 04:46:38 10° SSE
Cosmos 2285 Rocket 4.2 04:36:26 10° NNW 04:42:55 79° ENE 04:49:18 10° SSE
Cosmos 1825 2.2 04:40:05 10° N 04:43:54 79° E 04:47:41 10° S
Thor Agena Rocket 3.6 04:39:55 10° SSE 04:45:02 85° ENE 04:50:17 10° NNW
Cosmos 1862 3.2 04:41:14 10° N 04:45:14 89° ENE 04:49:12 10° S
BREEZE-M DEB (TANK) 4.3 04:43:47 12° W 04:48:51 26° NNW 04:51:39 10° NNE
CZ-2D R/B 4.4 04:46:38 10° N 04:50:33 32° WNW 04:52:35 22° WSW
CZ-4C R/B 4.3 04:47:27 10° WNW 04:50:56 16° NNW 04:54:40 10° NNE
UNKNOWN OBJECT B 4.2 04:48:12 10° NNW 04:50:59 20° WNW 04:51:42 19° W
CZ-4B R/B 2.6 04:49:47 10° N 04:53:24 67° WNW 04:56:33 14° SSW
ATLAS 5 CENTAUR R/B 2.3 04:51:30 21° WSW 04:54:33 48° NW 04:59:40 10° NNE
SL-08 ROCKET BODY 4.4 04:48:38 10° NNW 04:54:38 72° W 05:00:41 10° S
Sich 1 Rocket 3.6 04:50:20 10° NNW 04:54:38 54° W 04:58:54 10° S
BREEZE-M DEB (TANK) 1.6 04:54:09 17° WNW 04:55:44 85° SSW 04:58:29 10° ESE
USA 129 3.0 04:56:31 21° NNE 04:56:31 21° NNE 04:57:14 10° N
Cosmos 1656 Rocket 3.8 04:50:57 10° NNW 04:56:23 76° ENE 05:01:47 10° SSE
USA 32 4.0 04:51:17 10° S 04:56:31 90° E 05:01:47 10° N
IRS-1C Rocket 4.3 04:51:37 10° N 04:56:44 51° WNW 05:01:15 13° SW
Cosmos 1869 4.2 04:55:36 21° WSW 04:57:17 29° WNW 05:00:48 10° NNW
Cosmos 1992 Rocket 4.0 04:53:21 10° NNW 04:58:37 87° WSW 05:03:51 10° SSE
Cosmos 1703 Rocket 3.5 04:55:20 10° S 04:59:48 83° W 05:04:19 10° N
Cosmos 1933 3.4 04:56:44 11° SSW 05:00:37 60° W 05:04:40 10° N
NAVSTAR 52 R/B(PAM-D 4.0 05:00:44 26° S 05:00:44 26° S 05:02:07 10° ESE
SL-27 R/B 2.8 05:00:14 18° SW 05:02:47 51° WNW 05:06:21 10° N
SL-16 R/B 3.9 05:05:49 14° WSW 05:07:18 15° W 05:10:49 10° NW
ADEOS Rocket 3.7 05:00:52 10° NNE 05:08:39 83° ESE 05:16:24 10° SSW
Aureole 3 Rocket 3.9 05:01:48 10° S 05:09:13 84° W 05:14:26 10° N
CZ-2C R/B 4.4 05:05:48 10° SSW 05:09:45 31° W 05:13:43 10° NW
CENTAUR R/B 2.7 05:05:36 13° SW 05:11:04 66° NW 05:17:59 10° NNE
Atlas Centaur 2 4.0 05:11:38 10° S 05:14:13 14° SSE 05:17:04 10° SE
Abrixas rocket 3.7 05:18:46 10° NW 05:21:52 35° NNE 05:24:59 10° E
PSLV R/B 3.6 05:17:39 10° N 05:22:01 67° WNW 05:26:22 10° SSW
CZ-2D R/B 4.0 05:21:24 10° NNW 05:23:36 13° WNW 05:25:48 10° W
USA 116 4.3 05:20:00 10° S 05:24:39 72° WSW 05:29:51 10° NNW
COSMOS 2406 3.4 05:19:56 10° SW 05:25:35 56° WNW 05:31:16 10° NNE
Nadezhda 1 Rocket 4.4 05:27:11 10° SSW 05:33:08 46° WNW 05:39:13 10° N
Okean 2 Rocket 3.2 05:29:27 10° NNW 05:33:52 54° W 05:38:15 10° S
PSLV R/B 3.4 05:36:09 10° W 05:39:33 63° SSW 05:42:54 10° ESE
CZ-4B R/B 4.1 05:35:53 10° N 05:40:21 28° WNW 05:44:48 10° WSW
Cosmos 2181 Rocket 4.1 05:35:23 10° S 05:41:49 87° W 05:48:17 10° N
